THOR ABLESTAR DEB, 3125

Orbit data source: Space-Track

THOR ABLESTAR DEB, 3125 is space debris in LEO originally from a launch on Thu, 29 Jun 1961 UTC launched from the Air Force Eastern Test Range (AFETR). Debris objects in space refer to the collection of defunct objects orbiting the Earth. Examples of debris include non-operational satellites, rocket bodies, and fragments generated from explosions, collisions, or faulty payload assembly.

Loading next visibility...
Identifier
3125, 1961-015HY
Orbit
LEO
Country
Flag of USUS
Related business
Manufacturer
Unknown
Mission
Spacecraft
Bus & Motor
Unknown
Mass
Unknown
Launch date (UTC)
1961-06-29 (64 years ago)
Launch vehicle
Unknown
Launch site
Air Force Eastern Test Range (AFETR)
Object type
Payload
Rocket body
Debris
Shape & HBR
Unknown shape, 0.1 m
Radar Cross Section
Small (<0.1 m²)

Expand to show TLE details & history
Last TLE update: 2 days ago

TLE from 2 days ago
0 THOR ABLESTAR DEB
1 03125U 61015HY  25300.67599632  .00000726  00000-0  13473-2 0  9996
2 03125  67.5598  27.9482 0310131 223.8748 289.5653 13.27393340116661
Epoch: 2025-10-27T16:13Z
TLE epoch observation values (Epoch: 2025-10-27T16:13:26.082Z)
Latitude
27.53382°
Longitude
-84.05309°
Altitude
1,087.437 km
Speed
7.346 km/s
True Right ascension
13h 02m 19s
True Declination
27° 23' 58"
Sunlit
Object was in daylight at epoch
Visualization orbit readout
Latitude
Unknown
Longitude
Unknown
Altitude
Unknown
Speed
Unknown
Apparent Right ascension
Unknown
Apparent Declination
Unknown
Sunlit
N/A
Visualization observer readout
Local Sidereal Time
23:53:07
Azimuth
Unknown
Elevation
Unknown
Doppler factor
Unknown
Orbital elements
Apogee altitude
1,388.594 km
Perigee altitude
921.344 km
Semi-major axis
7,533.106 km
Eccentricity
0.03101
Inclination
67.5598°
RAAN
27.9482°
Arg. of periapsis
223.8748°
True anomaly
286.17462°
Mean anomaly
289.5653°
Eccentric anomaly
287.87415°
Mean motion
3.31957 °/min
Orbital period
108.45 mins
BSTAR
0.0013473

Documentation

Showing up to 5 results
|